When you browse on this site, cookies collect data to enhance your experience and personalize the content and advertising you see.
Visit our Privacy Policy to learn more. By continuing to use the site, you agree to this use of cookies and data.
  • In Lithuania
  • List of Countries
  • For 7 days
  • Water Temperature
  • Weather Map
  • Weather Widgets
  • user-avatar
    Login

    Hourly Weather Sovetskoe

    Today, 18 August, Sunday

    Time Temperature Precipitation Wind Pressure Humidity
    00:00 +18°C° 0 mm 2 mps 744 mmHg 93%
    01:00 +18°C° 0 mm 2 mps 744 mmHg 93%
    02:00 +18°C° 0 mm 2 mps 745 mmHg 93%
    03:00 +17°C° 0 mm 2 mps 745 mmHg 93%
    04:00 +17°C° 0 mm 2 mps 745 mmHg 92%
    05:00 +17°C° 0 mm 2 mps 745 mmHg 91%
    06:00 +17°C° 0 mm 2 mps 745 mmHg 90%
    07:00 +18°C° 0 mm 2 mps 745 mmHg 82%
    08:00 +20°C° 0 mm 3 mps 746 mmHg 74%
    09:00 +21°C° 0 mm 3 mps 746 mmHg 66%
    10:00 +22°C° 0 mm 3 mps 746 mmHg 61%
    11:00 +24°C° 0 mm 3 mps 746 mmHg 57%
    12:00 +25°C° 0 mm 3 mps 746 mmHg 52%
    13:00 +25°C° 0 mm 3 mps 746 mmHg 50%
    14:00 +26°C° 0 mm 3 mps 746 mmHg 49%
    15:00 +26°C° 0 mm 3 mps 747 mmHg 48%
    16:00 +26°C° 0 mm 3 mps 747 mmHg 51%
    17:00 +26°C° 0 mm 2 mps 747 mmHg 54%
    18:00 +25°C° 0 mm 2 mps 747 mmHg 57%
    19:00 +23°C° 0 mm 2 mps 747 mmHg 64%
    20:00 +21°C° 0 mm 2 mps 748 mmHg 71%
    21:00 +19°C° 0 mm 2 mps 748 mmHg 78%
    22:00 +19°C° 0 mm 2 mps 748 mmHg 82%
    23:00 +18°C° 0 mm 2 mps 749 mmHg 86%

    Tomorrow, 19 August, Monday

    Time Temperature Precipitation Wind Pressure Humidity
    00:00 +17°C° 0 mm 2 mps 749 mmHg 90%
    01:00 +17°C° 0 mm 2 mps 749 mmHg 91%
    02:00 +17°C° 0 mm 2 mps 749 mmHg 91%
    03:00 +16°C° 0 mm 1 mps 750 mmHg 92%
    04:00 +16°C° 0 mm 1 mps 750 mmHg 92%
    05:00 +16°C° 0 mm 1 mps 750 mmHg 91%
    06:00 +16°C° 0 mm 1 mps 750 mmHg 91%
    07:00 +18°C° 0 mm 2 mps 750 mmHg 84%
    08:00 +20°C° 0 mm 2 mps 751 mmHg 77%
    09:00 +21°C° 0 mm 3 mps 751 mmHg 70%
    10:00 +24°C° 0 mm 2 mps 751 mmHg 65%
    11:00 +25°C° 0 mm 2 mps 751 mmHg 59%
    12:00 +26°C° 0 mm 2 mps 751 mmHg 54%
    13:00 +27°C° 0 mm 2 mps 751 mmHg 51%
    14:00 +27°C° 0 mm 2 mps 751 mmHg 49%
    15:00 +28°C° 0 mm 2 mps 751 mmHg 47%
    16:00 +28°C° 0 mm 2 mps 751 mmHg 49%
    17:00 +27°C° 0 mm 2 mps 751 mmHg 52%
    18:00 +27°C° 0 mm 2 mps 751 mmHg 54%
    19:00 +26°C° 0 mm 2 mps 752 mmHg 59%
    20:00 +24°C° 0 mm 2 mps 752 mmHg 64%
    21:00 +21°C° 0 mm 2 mps 752 mmHg 69%
    22:00 +21°C° 0 mm 2 mps 752 mmHg 71%
    23:00 +20°C° 0 mm 3 mps 753 mmHg 73%

    Day after tomorrow, 20 August, Tuesday

    Time Temperature Precipitation Wind Pressure Humidity
    00:00 +20°C° 0 mm 3 mps 753 mmHg 75%
    01:00 +19°C° 0 mm 3 mps 753 mmHg 78%
    02:00 +19°C° 0 mm 3 mps 753 mmHg 80%
    03:00 +19°C° 0 mm 3 mps 753 mmHg 83%
    04:00 +18°C° 0 mm 3 mps 753 mmHg 84%
    05:00 +18°C° 0 mm 3 mps 753 mmHg 85%
    06:00 +18°C° 0 mm 3 mps 753 mmHg 86%
    07:00 +20°C° 0 mm 3 mps 754 mmHg 79%
    08:00 +22°C° 0 mm 4 mps 754 mmHg 73%
    09:00 +25°C° 0 mm 4 mps 754 mmHg 66%
    10:00 +26°C° 0 mm 4 mps 754 mmHg 62%
    11:00 +27°C° 0 mm 4 mps 754 mmHg 57%
    12:00 +29°C° 0 mm 4 mps 754 mmHg 52%
    13:00 +29°C° 0 mm 4 mps 753 mmHg 50%
    14:00 +29°C° 0 mm 4 mps 753 mmHg 49%
    15:00 +30°C° 0 mm 4 mps 753 mmHg 48%
    16:00 +29°C° 0 mm 4 mps 753 mmHg 50%
    17:00 +29°C° 0 mm 3 mps 753 mmHg 53%
    18:00 +28°C° 0 mm 3 mps 753 mmHg 56%
    19:00 +27°C° 0 mm 3 mps 753 mmHg 59%
    20:00 +25°C° 0 mm 3 mps 753 mmHg 62%
    21:00 +22°C° 0 mm 3 mps 753 mmHg 66%
    22:00 +22°C° 0 mm 3 mps 754 mmHg 66%
    23:00 +21°C° 0 mm 3 mps 754 mmHg 66%

    21 August, Wednesday

    Time Temperature Precipitation Wind Pressure Humidity
    00:00 +21°C° 0 mm 3 mps 754 mmHg 66%
    01:00 +20°C° 0 mm 3 mps 754 mmHg 68%
    02:00 +20°C° 0 mm 3 mps 754 mmHg 70%
    03:00 +19°C° 0 mm 3 mps 754 mmHg 71%
    04:00 +19°C° 0 mm 3 mps 754 mmHg 72%
    05:00 +19°C° 0 mm 4 mps 754 mmHg 73%
    06:00 +19°C° 0 mm 4 mps 754 mmHg 74%
    07:00 +21°C° 0 mm 4 mps 754 mmHg 69%
    08:00 +22°C° 0 mm 5 mps 754 mmHg 64%
    09:00 +25°C° 0 mm 5 mps 754 mmHg 58%
    10:00 +27°C° 0 mm 5 mps 754 mmHg 55%
    11:00 +28°C° 0 mm 6 mps 754 mmHg 51%
    12:00 +29°C° 0 mm 6 mps 753 mmHg 48%
    13:00 +30°C° 0 mm 6 mps 753 mmHg 47%
    14:00 +30°C° 0 mm 6 mps 753 mmHg 46%
    15:00 +32°C° 0 mm 6 mps 753 mmHg 46%
    16:00 +30°C° 0 mm 5 mps 753 mmHg 48%
    17:00 +30°C° 0 mm 4 mps 752 mmHg 51%
    18:00 +29°C° 0 mm 4 mps 752 mmHg 54%
    19:00 +27°C° 0 mm 4 mps 752 mmHg 58%
    20:00 +26°C° 0 mm 4 mps 752 mmHg 62%
    21:00 +23°C° 0 mm 4 mps 752 mmHg 66%
    22:00 +23°C° 0 mm 4 mps 752 mmHg 67%
    23:00 +22°C° 0 mm 4 mps 752 mmHg 68%

    22 August, Thursday

    Time Temperature Precipitation Wind Pressure Humidity
    00:00 +22°C° 0 mm 3 mps 752 mmHg 69%
    01:00 +21°C° 0 mm 3 mps 752 mmHg 70%
    02:00 +21°C° 0 mm 3 mps 752 mmHg 71%
    03:00 +20°C° 0 mm 3 mps 752 mmHg 71%
    04:00 +20°C° 0 mm 3 mps 751 mmHg 72%
    05:00 +20°C° 0 mm 3 mps 751 mmHg 72%
    06:00 +20°C° 0 mm 3 mps 751 mmHg 72%
    07:00 +22°C° 0 mm 3 mps 751 mmHg 67%
    08:00 +24°C° 0 mm 3 mps 751 mmHg 61%
    09:00 +26°C° 0 mm 3 mps 752 mmHg 55%
    10:00 +28°C° 0 mm 3 mps 751 mmHg 51%
    11:00 +30°C° 0 mm 3 mps 751 mmHg 46%
    12:00 +33°C° 0 mm 3 mps 751 mmHg 41%
    13:00 +34°C° 0 mm 2 mps 751 mmHg 39%
    14:00 +34°C° 0 mm 2 mps 751 mmHg 37%
    15:00 +35°C° 0 mm 2 mps 751 mmHg 36%
    16:00 +34°C° 0 mm 2 mps 750 mmHg 39%
    17:00 +32°C° 0 mm 2 mps 750 mmHg 43%
    18:00 +31°C° 0 mm 2 mps 750 mmHg 47%
    19:00 +30°C° 0 mm 2 mps 750 mmHg 50%
    20:00 +28°C° 0 mm 2 mps 750 mmHg 53%
    21:00 +26°C° 0 mm 2 mps 750 mmHg 56%
    22:00 +26°C° 0 mm 2 mps 750 mmHg 56%
    23:00 +25°C° 0 mm 2 mps 750 mmHg 56%

    23 August, Friday

    Time Temperature Precipitation Wind Pressure Humidity
    00:00 +25°C° 0 mm 2 mps 750 mmHg 56%
    01:00 +25°C° 0 mm 1 mps 750 mmHg 56%
    02:00 +24°C° 0 mm 1 mps 750 mmHg 55%
    03:00 +24°C° 0 mm 1 mps 750 mmHg 54%
    04:00 +24°C° 0 mm 1 mps 750 mmHg 56%
    05:00 +23°C° 0 mm 1 mps 751 mmHg 57%
    06:00 +23°C° 0 mm 1 mps 751 mmHg 59%
    07:00 +25°C° 0 mm 1 mps 751 mmHg 56%
    08:00 +26°C° 0 mm 1 mps 751 mmHg 53%
    09:00 +28°C° 0 mm 1 mps 751 mmHg 50%
    10:00 +29°C° 0 mm 1 mps 751 mmHg 47%
    11:00 +31°C° 0 mm 1 mps 751 mmHg 43%
    12:00 +32°C° 0 mm 1 mps 751 mmHg 39%
    13:00 +33°C° 0 mm 1 mps 751 mmHg 38%
    14:00 +33°C° 0 mm 1 mps 750 mmHg 36%
    15:00 +33°C° 0 mm 1 mps 750 mmHg 35%
    16:00 +32°C° 0 mm 2 mps 750 mmHg 43%
    17:00 +30°C° 0 mm 3 mps 750 mmHg 51%
    18:00 +29°C° 0 mm 4 mps 750 mmHg 59%
    19:00 +27°C° 0.2 mm 5 mps 750 mmHg 68%
    20:00 +25°C° 0.2 mm 5 mps 750 mmHg 77%
    21:00 +21°C° 0.2 mm 6 mps 750 mmHg 86%
    22:00 +21°C° 0.8 mm 5 mps 751 mmHg 87%
    23:00 +20°C° 0.8 mm 5 mps 751 mmHg 88%
    Show more